Flag for Equatorial Guinea Weather past 2 weeks in Ebebiyín, Equatorial Guinea

Now
68 °F

Thunderstorms. Partly cloudy.


Feels Like: 68 °F
Forecast: 69 / 79 °F
Wind: 2 mph from North

Location: Yaounde Airport

Current Time: Mar 27, 2015 at 4:41:11 AM

Latest Report: Mar 27, 2015 at 3:00 AM


Visibility: 3 mi

Pressure: 30.04 "Hg

Humidity: 94%

Dew point: 66 °F

Location of EbebiyínLocation

Historic Weather in Ebebiyín — Graph

°F

Ebebiyín temperature yesterday

Maximum temperature yesterday: 86 °F (at 3:00 PM)
Minimum temperature yesterday: 68 °F (at 12:00 AM)
Average temperature yesterday: 76 °F

Past Weeks' High & Low Weather Summary

 TemperatureHumidityPressure
High93 °F (Mar 20, 3:00 PM)100% (Mar 15, 5:00 AM)30.09 "Hg (Mar 15, 5:00 AM)
Low68 °F (Mar 15, 4:00 AM)41% (Mar 12, 2:00 PM)29.80 "Hg (Mar 13, 4:00 PM)
Average78 °F79%29.92 "Hg
* Reported Mar 12 3:00 AM — Mar 27 3:00 AM, Ebebiyín, Weather by CustomWeather, © 2015

Note: Actual official high and low records may vary slightly from our data, if they occured in-between our weather recording intervals... More about our weather records

Advertising

Ebebiyín weather history for previous 24 hours

 ConditionsComfort  
Time TempWeatherWind HumidityBarometerVisibility
3:00 AM
Fri, Mar 27
68 °FThunderstorms. Partly cloudy.2 mph94%30.04 "Hg3 mi
2:00 AM68 °FThunderstorms. Partly cloudy.No wind94%30.04 "Hg2 mi
1:00 AM68 °FThunderstorms. Partly cloudy.5 mph94%30.07 "Hg2 mi
12:00 AM68 °FThunderstorms. Partly cloudy.3 mph94%30.07 "Hg2 mi
11:00 PM
Thu, Mar 26
68 °FStrong thunderstorms. Partly cloudy.13 mph94%30.09 "Hg1 mi
10:00 PM75 °FThunderstorms. Passing clouds.9 mph83%30.04 "HgN/A
9:00 PM75 °FPassing clouds.7 mph89%30.01 "HgN/A
7:00 PM77 °FPassing clouds.6 mph83%29.98 "HgN/A
6:00 PM79 °FPartly sunny.7 mph79%29.92 "HgN/A
5:00 PM81 °FPartly sunny.6 mph74%29.89 "HgN/A
4:00 PM82 °FPartly sunny.9 mph70%29.92 "HgN/A
3:00 PM86 °FPartly sunny.7 mph59%29.92 "HgN/A
1:00 PM82 °FPartly sunny.5 mph70%30.01 "HgN/A
12:00 PM82 °FPartly sunny.7 mph70%30.04 "HgN/A
11:00 AM81 °FPartly sunny.6 mph74%30.07 "HgN/A
10:00 AM77 °FPartly sunny.9 mph79%30.07 "HgN/A
9:00 AM75 °FPartly sunny.6 mph89%30.07 "HgN/A
8:00 AM73 °FPartly sunny.6 mph89%30.04 "HgN/A
7:00 AM72 °FPartly sunny.5 mph94%30.01 "HgN/A
6:00 AM72 °FPassing clouds.2 mph94%30.01 "HgN/A
5:00 AM72 °FPassing clouds.3 mph94%29.98 "Hg4 mi
4:00 AM70 °FPassing clouds.7 mph94%29.98 "Hg4 mi
Weather by CustomWeather, © 2015

See weather overviewHow to use our weather pages